Regional Weather Roundup
Issued by NWS

Home | Current Version | Previous Version | Text Only | Print | Product List | Glossary Off
Versions: 1 2 3 4 5 6 7 8 9 10 11 12 13 14 15 16 17 18 19 20 21 22 23 24 25 26 27 28 29 30 31 32 33 34 35 36 37 38 39 40 41 42 43 44 45 46 47 48 49 50

000
ASUS45 KPSR 221400
RWRAZ

PRELIMINARY ARIZONA REGIONAL HOURLY WEATHER ROUNDUP
NATIONAL WEATHER SERVICE PHOENIX AZ
700 AM MST FRI AUG 22 2014

NOTE: FAIR INDICATES FEW OR NO CLOUDS BELOW 12,000 FEET WITH NO
SIGNIFICANT WEATHER AND/OR OBSTRUCTIONS TO VISIBILITY.

AZZ001>003-036-221500-
NORTHWEST ARIZONA

CITY           SKY/WX    TMP DP  RH WIND       PRES   REMARKS
KINGMAN        SUNNY     62  56  80 SE8       30.09R
$$

AZZ004>008-015-016-018-221500-
NORTH CENTRAL ARIZONA

CITY           SKY/WX    TMP DP  RH WIND       PRES   REMARKS
GRAND CANYON   MOSUNNY   46  46 100 CALM      30.25S
WILLIAMS       PTSUNNY   54  50  87 CALM      30.32R
PRESCOTT       MOSUNNY   59  56  89 CALM      30.18R
FLAGSTAFF      CLOUDY    52  50  93 CALM      30.29R
PAYSON         SUNNY     61  55  82 CALM      30.21R
PAGE           MOSUNNY   65  56  72 CALM      30.12R
$$

AZZ009>014-017-221500-
NORTHEAST ARIZONA

CITY           SKY/WX    TMP DP  RH WIND       PRES   REMARKS
WINSLOW        NOT AVBL
SAINT JOHNS    PTSUNNY   58  56  93 CALM      30.22R
WINDOW ROCK    MOSUNNY   52  50  93 CALM      30.28R
$$

AZZ023-221500-
GREATER PHOENIX AREA

CITY           SKY/WX    TMP DP  RH WIND       PRES   REMARKS
PHOENIX        MOSUNNY   73  67  81 E3        29.98R
GLENDALE       MOSUNNY   72  72 100 N3        29.99S
DEER VALLEY    SUNNY     70  67  90 CALM      29.99S
SCOTTSDALE     MOSUNNY   72  66  81 CALM      30.01R
MESA-GATEWAY   MOSUNNY   72  64  78 CALM      30.02R
CHANDLER       MOSUNNY   72  66  83 CALM      29.99R
$$

AZZ027-028-221500-
SOUTHWEST MARICOPA COUNTY AND PINAL COUNTY

CITY           SKY/WX    TMP DP  RH WIND       PRES   REMARKS
CASA GRANDE    SUNNY     70  61  73 CALM      30.01R
$$

AZZ503-504-507>509-221500-
SOUTHEAST ARIZONA

CITY           SKY/WX    TMP DP  RH WIND       PRES   REMARKS
TUCSON         SUNNY     70  63  78 CALM      30.07R
RYAN FIELD       N/A     70  64  83 E6        30.06R
NOGALES        CLOUDY    64  60  87 CALM      30.13R
SIERRA VISTA   PTSUNNY   64  57  77 W3        30.19R
SAFFORD        MOSUNNY   70  62  76 CALM      30.06R
$$

AZZ020-021-025-026-031-221500-
SOUTHWEST ARIZONA

CITY           SKY/WX    TMP DP  RH WIND       PRES   REMARKS
YUMA           MOSUNNY   72  64  76 NE8       29.93R
$$

CAZ031-033-041-043-047-048-061-221500-
SOUTHERN CALIFORNIA

CITY           SKY/WX    TMP DP  RH WIND       PRES   REMARKS
DOWNTOWN L.A.  CLEAR     66  62  87 CALM      29.94R
L.A. AIRPORT   PTCLDY    68  63  84 W6        29.95R
SAN DIEGO      MOCLDY    69  63  81 CALM      29.96R
BURBANK        CLEAR     67  60  78 SE6       29.95R
ONTARIO        CLEAR     68  62  81 CALM      29.95R
RIVERSIDE      CLEAR     68  62  81 CALM      29.96R
PALM SPRINGS   PTCLDY    74  63  68 SW6       29.96R
EL CENTRO NAS  CLEAR     69  66  90 CALM      29.92R
IMPERIAL       CLEAR     70  66  87 CALM      29.91R
BLYTHE         SUNNY     70  68  93 N5        29.94R
$$

NVZ020-UTZ003-221500-
SOUTHERN NEVADA-UTAH

CITY           SKY/WX    TMP DP  RH WIND       PRES   REMARKS
LAS VEGAS      NOT AVBL
SALT LAKE CITY PTSUNNY   69  47  45 SE13      29.99R
$$

NMZ009-TXZ055-221500-
NEW MEXICO-WEST TEXAS

CITY           SKY/WX    TMP DP  RH WIND       PRES   REMARKS
ALBUQUERQUE    LGT RAIN  68  50  52 W7        30.23R
EL PASO        LGT RAIN  66  63  90 N8        30.12S
$$


........................KEY........................
SKY/WX - SKY CONDITION/WEATHER
TMP    - TEMPERATURE IN FAHRENHEIT
DP     - DEW POINT IN FAHRENHEIT
RH     - RELATIVE HUMIDITY IN PERCENT
WIND   - DIRECTION AND SPEED IN MILES PER HOUR (MPH)
VRB    - VARIABLE WIND DIRECTION
PRES   - MEAN SEA LEVEL PRESSURE IN INCHES OF MERCURY
         F - FALLING PRESSURE   R - RISING PRESSURE
         S - STEADY PRESSURE
VSB    - VISIBILITY IN MILES
HX     - HEAT INDEX IN FAHRENHEIT
WCI    - WIND CHILL INDEX IN FAHRENHEIT
TC     - TEMPERATURE IN CELSIUS WHICH IS ALSO KNOWN AS
         TEMPERATURE IN CENTIGRADE
AFB    - AIR FORCE BASE
         LUKE AFB IS LUKE AIR FORCE BASE
         DAVIS-MONTHAN IS DAVIS-MONTHAN AIR FORCE BASE
NAS    - NAVAL AIR STATION
         EL CENTRO NAS IS EL CENTRO NAVAL AIR STATION
N/A    - NOT AVAILABLE


USA.gov is the U.S. government's official web portal to all federal, state and local government web resources and services.